User: anonymous   Login
Location: Campillo
(40.8621°N, 4.2488°W)
Time: 00:29:38
(UTC+00:00)
Language:

IRIS - Orbit

View from above orbital plane
View from above orbital plane
View from above satellite
View from above satellite

Ground track
Ground track

The orbit data is extracted from the following two-line orbital elements,

1 22196U 92070D   21217.53651311  .00009988  40415-5  28538-3 0  9998
2 22196  41.1451 105.2458 1510450 122.5106 253.0657 12.49560506150941
Epoch (UTC): 05 August 2021 12:52:34
Eccentricity: 0.1510450
inclination: 41.1451°
perigee height: 281 km
apogee height: 2651 km
right ascension of ascending node: 105.2458°
argument of perigee: 122.5106°
revolutions per day: 12.49560506
mean anomaly at epoch: 253.0657°
orbit number at epoch: 15094

The dashed part of the orbit path shows where the satellite is in the earth's shadow,  

DLR